Tracking 29969 objects as of 6-Dec-2024
HD Live streaming from Space Station
objects crossing your sky now

COSMOS 1275 DEB

Track COSMOS 1275 DEB now!
10-day predictions


NORAD ID: 12714
Int'l Code: 1981-053BJ
Perigee: 952.7 km
Apogee: 1,138.0 km
Inclination: 83.0 °
Period: 105.9 minutes
Semi major axis: 7416 km
RCS: 0.2013 m2 (medium)
Launch date: June 4, 1981
Source: Commonwealth of Independent States (former USSR) (CIS)
Launch site: PLESETSK MISSILE AND SPACE COMPLEX (PKMTR)

Note: This is SATELLITE DEBRIS
Your satellite tracking list
Your tracking list is empty




NASA's NSSDC Master Catalog

Two Line Element Set (TLE):
1 12714U 81053BJ  24340.52709711  .00001001  00000-0  12727-2 0  9990
2 12714  82.9749  18.7647 0124918 272.2661  86.4187 13.59308956140985
Source of the keplerian elements: AFSPC